Flag for United Kingdom Weather past 2 weeks in Sunderland, England, United Kingdom

Now
55 °F

Scattered clouds.


Feels Like: 52 °F
Forecast: 48 / 55 °F
Wind: 15 mph from Southwest

Location: Newcastle

Current Time: Dec 18, 2014 at 10:13:30 AM

Latest Report: Dec 18, 2014 at 9:50 AM


Visibility: N/A

Pressure: 29.39 "Hg

Humidity: 77%

Dew point: 48 °F

Location of SunderlandLocation

Historic Weather in Sunderland — Graph

°F

Sunderland temperature yesterday

Maximum temperature yesterday: 52 °F (at 6:20 AM)
Minimum temperature yesterday: 41 °F (at 12:20 AM)
Average temperature yesterday: 50 °F

Past Weeks' High & Low Weather Summary

 TemperatureHumidityPressure
High54 °F (Dec 9, 6:20 PM)100% (Dec 3, 8:50 AM)30.36 "Hg (Dec 3, 8:50 AM)
Low27 °F (Dec 4, 2:50 AM)66% (Dec 10, 9:20 AM)29.12 "Hg (Dec 12, 4:50 AM)
Average39 °F87%29.74 "Hg
* Reported Dec 3 8:20 AM — Dec 18 8:50 AM, Sunderland, Weather by CustomWeather, © 2014

Note: Actual official high and low records may vary slightly from our data, if they occured in-between our weather recording intervals... More about our weather records

Advertising

Sunderland weather history for previous 24 hours

 ConditionsComfort  
Time TempWeatherWind HumidityBarometerVisibility
8:50 AM
Dec 18
54 °FScattered showers. Broken clouds.10 mph88%29.42 "HgN/A
8:20 AM54 °FPassing clouds.8 mph82%29.42 "HgN/A
7:50 AM52 °FPassing clouds.7 mph88%29.45 "HgN/A
7:20 AM54 °FPassing clouds.8 mph82%29.45 "HgN/A
6:50 AM54 °FPassing clouds.9 mph88%29.45 "HgN/A
6:20 AM54 °FPassing clouds.13 mph88%29.47 "HgN/A
5:50 AM54 °FScattered showers. Passing clouds.16 mph88%29.45 "HgN/A
5:20 AM52 °FScattered showers. Passing clouds.13 mph94%29.45 "HgN/A
4:50 AM52 °FScattered showers. Passing clouds.12 mph94%29.47 "HgN/A
4:20 AM52 °FScattered showers. Passing clouds.9 mph94%29.47 "HgN/A
3:20 AM50 °FScattered showers. Passing clouds.10 mph100%29.50 "HgN/A
2:50 AM50 °FSprinkles. Passing clouds.10 mph100%29.50 "HgN/A
2:20 AM52 °FSprinkles. Passing clouds.13 mph94%29.50 "HgN/A
1:50 AM50 °FSprinkles. Passing clouds.10 mph94%29.50 "HgN/A
1:20 AM52 °FSprinkles. Overcast.10 mph88%29.50 "HgN/A
12:50 AM52 °FSprinkles. Overcast.13 mph88%29.53 "HgN/A
12:20 AM52 °FSprinkles. Passing clouds.12 mph88%29.50 "HgN/A
11:50 PM
Dec 17
52 °FSprinkles. Passing clouds.12 mph88%29.53 "HgN/A
11:20 PM52 °FSprinkles. Passing clouds.9 mph88%29.53 "HgN/A
10:20 PM52 °FPassing clouds.9 mph88%29.53 "HgN/A
9:50 PM52 °FPassing clouds.12 mph94%29.53 "HgN/A
9:20 PM52 °FLight rain. Passing clouds.12 mph94%29.53 "HgN/A
8:50 PM50 °FLight rain. Passing clouds.5 mph94%29.53 "HgN/A
8:20 PM50 °FLight rain. Passing clouds.9 mph94%29.53 "HgN/A
7:50 PM52 °FLight rain. Passing clouds.10 mph88%29.53 "HgN/A
7:20 PM50 °FLight rain. Partly cloudy.8 mph94%29.53 "HgN/A
6:50 PM50 °FPartly cloudy.8 mph94%29.53 "HgN/A
6:20 PM50 °FPassing clouds.9 mph94%29.53 "HgN/A
5:50 PM50 °FPartly cloudy.9 mph88%29.53 "HgN/A
5:20 PM50 °FPassing clouds.15 mph88%29.50 "HgN/A
4:20 PM50 °FScattered showers. Passing clouds.13 mph94%29.53 "HgN/A
3:50 PM50 °FScattered showers. Passing clouds.12 mph88%29.53 "HgN/A
2:50 PM50 °FPassing clouds.14 mphN/A29.50 "HgN/A
1:20 PM52 °FPassing clouds.14 mph82%29.47 "HgN/A
12:50 PM50 °FPassing clouds.15 mph88%29.47 "HgN/A
11:20 AM50 °FScattered clouds.14 mph88%29.47 "HgN/A
10:50 AM52 °FScattered clouds.8 mph82%29.47 "HgN/A
10:20 AM52 °FPassing clouds.8 mph82%29.47 "HgN/A
Weather by CustomWeather, © 2014

See weather overviewHow to use our weather pages